TIROS 8 DEB, 19396

Orbit data source: Space-Track

TIROS 8 DEB, 19396 is space debris in LEO originally from a launch on Sat, 21 Dec 1963 UTC launched from the Air Force Western Test Range (AFWTR). Debris objects in space refer to the collection of defunct objects orbiting the Earth. Examples of debris include non-operational satellites, rocket bodies, and fragments generated from explosions, collisions, or faulty payload assembly.

Loading next visibility...
Identifier
19396, 1963-054E
Orbit
LEO
Country
Flag of USUS
Related business
Manufacturer
Unknown
Mission
Spacecraft
Bus & Motor
Unknown
Mass
Unknown
Launch date (UTC)
1963-12-21 (62 years ago)
Launch vehicle
Unknown
Launch site
Air Force Western Test Range (AFWTR)
Object type
Payload
Rocket body
Debris
Shape & HBR
Unknown shape, 0.1 m
Radar Cross Section
Small (<0.1 m²)

Expand to show TLE details & history
Last TLE update: 9 hours ago

TLE from 9 hours ago
0 TIROS 8 DEB
1 19396U 63054E   25354.46512461  .00004551  00000-0  27442-3 0  9991
2 19396  58.4664 258.4424 0019060 143.5014 216.7347 15.12379142  7390
Epoch: 2025-12-20T11:09Z
TLE epoch observation values (Epoch: 2025-12-20T11:09:46.766Z)
Latitude
-0.00001°
Longitude
1.706°
Altitude
540.947 km
Speed
7.587 km/s
True Right ascension
17h 13m 46s
True Declination
0° 00' 00"
Sunlit
Object was in daylight at epoch
Visualization orbit readout
Latitude
Unknown
Longitude
Unknown
Altitude
Unknown
Speed
Unknown
Apparent Right ascension
Unknown
Apparent Declination
Unknown
Sunlit
N/A
Visualization observer readout
Local Sidereal Time
18:54:03
Azimuth
Unknown
Elevation
Unknown
Doppler factor
Unknown
Orbital elements
Apogee altitude
541.543 km
Perigee altitude
515.215 km
Semi-major axis
6,906.516 km
Eccentricity
0.00191
Inclination
58.4664°
RAAN
258.4424°
Arg. of periapsis
143.5014°
True anomaly
216.60431°
Mean anomaly
216.7347°
Eccentric anomaly
216.66948°
Mean motion
3.78142 °/min
Orbital period
95.2 mins
BSTAR
0.00027442
Loading maneuver chart data...
Computing Atmospheric mass density...
Loading historical data...
Loading historical data...
Loading historical data...
Loading historical data...
Loading historical data...
Loading historical data...
Loading historical data...
Other satellites on launch #54 in the year 1963 (1963-12-21 UTC)

Documentation

Showing up to 5 results
|